Time,TemperatureF,DewpointF,PressureIn,WindDirection,WindDirectionDegrees,WindSpeedMPH,WindSpeedGustMPH,Humidity,HourlyPrecipIn,Conditions,Clouds,dailyrainin,SoftwareType,DateUTC
2013-08-01 00:09:00,67.8,66.0,29.99,SW,217,0.0,-999.0,94,-99.99,,,0.00,weatherlink.com 1.10,2013-08-01 04:09:00,
2013-08-01 00:24:00,67.4,66.0,29.99,SW,217,0.0,-999.0,94,-99.99,,,0.00,weatherlink.com 1.10,2013-08-01 04:24:00,
2013-08-01 00:39:00,67.0,65.0,29.99,SW,217,0.0,-999.0,94,-99.99,,,0.00,weatherlink.com 1.10,2013-08-01 04:39:00,
2013-08-01 00:55:00,67.0,65.0,29.99,SW,217,0.0,-999.0,94,-99.99,,,0.00,weatherlink.com 1.10,2013-08-01 04:55:00,
2013-08-01 01:09:00,66.7,65.0,29.98,SW,217,0.0,-999.0,95,-99.99,,,0.00,weatherlink.com 1.10,2013-08-01 05:09:00,
2013-08-01 01:24:00,66.7,65.0,29.98,SW,217,0.0,-999.0,95,-99.99,,,0.00,weatherlink.com 1.10,2013-08-01 05:24:00,
2013-08-01 01:39:00,66.7,65.0,29.98,SW,217,0.0,-999.0,95,-99.99,,,0.00,weatherlink.com 1.10,2013-08-01 05:39:00,
2013-08-01 01:55:00,66.8,65.0,29.98,SW,217,0.0,-999.0,95,-99.99,,,0.00,weatherlink.com 1.10,2013-08-01 05:55:00,
2013-08-01 02:09:00,66.8,65.0,29.98,SW,217,0.0,-999.0,95,-99.99,,,0.00,weatherlink.com 1.10,2013-08-01 06:09:00,
2013-08-01 02:24:00,67.0,66.0,29.98,SW,217,0.0,-999.0,95,-99.99,,,0.00,weatherlink.com 1.10,2013-08-01 06:24:00,
2013-08-01 02:39:00,67.5,66.0,29.97,SW,217,0.0,-999.0,96,-99.99,,,0.00,weatherlink.com 1.10,2013-08-01 06:39:00,
2013-08-01 02:55:00,67.7,67.0,29.97,SW,217,0.0,-999.0,96,-99.99,,,0.00,weatherlink.com 1.10,2013-08-01 06:55:00,
2013-08-01 03:09:00,68.0,67.0,29.96,SW,217,0.0,-999.0,96,-99.99,,,0.00,weatherlink.com 1.10,2013-08-01 07:09:00,
2013-08-01 03:24:00,67.7,66.0,29.96,SW,219,0.0,-999.0,95,-99.99,,,0.00,weatherlink.com 1.10,2013-08-01 07:24:00,
2013-08-01 03:39:00,67.5,66.0,29.96,SW,219,0.0,-999.0,95,-99.99,,,0.00,weatherlink.com 1.10,2013-08-01 07:39:00,
2013-08-01 04:09:00,67.5,66.0,29.96,SW,219,0.0,-999.0,96,-99.99,,,0.00,weatherlink.com 1.10,2013-08-01 08:09:00,
2013-08-01 04:24:00,67.4,66.0,29.96,SW,225,2.0,-999.0,96,-99.99,,,0.00,weatherlink.com 1.10,2013-08-01 08:24:00,
2013-08-01 04:39:00,67.5,66.0,29.96,SW,225,0.0,-999.0,96,-99.99,,,0.00,weatherlink.com 1.10,2013-08-01 08:39:00,
2013-08-01 04:55:00,67.6,67.0,29.96,SW,225,0.0,-999.0,96,-99.99,,,0.00,weatherlink.com 1.10,2013-08-01 08:55:00,
2013-08-01 05:09:00,67.8,67.0,29.96,SW,225,0.0,-999.0,96,-99.99,,,0.00,weatherlink.com 1.10,2013-08-01 09:09:00,
2013-08-01 05:24:00,67.9,67.0,29.97,NW,310,3.0,-999.0,96,-99.99,,,0.00,weatherlink.com 1.10,2013-08-01 09:24:00,
2013-08-01 05:55:00,67.9,67.0,29.97,WNW,293,3.0,-999.0,96,-99.99,,,0.00,weatherlink.com 1.10,2013-08-01 09:55:00,
2013-08-01 06:09:00,68.0,67.0,29.98,WNW,294,1.0,-999.0,96,-99.99,,,0.00,weatherlink.com 1.10,2013-08-01 10:09:00,
2013-08-01 06:39:00,68.1,67.0,29.99,WNW,294,0.0,-999.0,96,-99.99,,,0.00,weatherlink.com 1.10,2013-08-01 10:39:00,
2013-08-01 07:24:00,68.1,67.0,29.99,WNW,294,3.0,-999.0,96,-99.99,,,0.00,weatherlink.com 1.10,2013-08-01 11:24:00,
2013-08-01 08:39:00,68.6,68.0,30.01,WNW,294,4.0,-999.0,96,-99.99,,,0.00,weatherlink.com 1.10,2013-08-01 12:39:00,
2013-08-01 08:55:00,68.7,68.0,30.01,WNW,294,2.0,-999.0,96,-99.99,,,0.00,weatherlink.com 1.10,2013-08-01 12:55:00,
2013-08-01 09:09:00,69.0,68.0,30.01,WSW,257,6.0,-999.0,96,-99.99,,,0.00,weatherlink.com 1.10,2013-08-01 13:09:00,
2013-08-01 09:25:00,69.2,68.0,30.00,WSW,250,4.0,-999.0,96,-99.99,,,0.00,weatherlink.com 1.10,2013-08-01 13:25:00,
2013-08-01 10:10:00,70.2,69.0,30.00,WNW,290,4.0,-999.0,96,-99.99,,,0.00,weatherlink.com 1.10,2013-08-01 14:10:00,
2013-08-01 10:40:00,71.1,69.0,30.00,WNW,297,4.0,-999.0,93,-99.99,,,0.00,weatherlink.com 1.10,2013-08-01 14:40:00,
2013-08-01 11:10:00,71.0,69.0,30.01,NW,311,3.0,-999.0,94,-99.99,,,0.00,weatherlink.com 1.10,2013-08-01 15:10:00,
2013-08-01 11:40:00,72.5,70.0,30.02,NW,313,4.0,-999.0,92,-99.99,,,0.00,weatherlink.com 1.10,2013-08-01 15:40:00,
2013-08-01 11:56:00,72.6,70.0,30.02,NW,320,4.0,-999.0,91,-99.99,,,0.00,weatherlink.com 1.10,2013-08-01 15:56:00,
2013-08-01 12:25:00,75.5,70.0,30.01,NNW,331,1.0,-999.0,83,-99.99,,,0.00,weatherlink.com 1.10,2013-08-01 16:25:00,
2013-08-01 12:40:00,76.1,70.0,30.01,WNW,288,3.0,-999.0,82,-99.99,,,0.00,weatherlink.com 1.10,2013-08-01 16:40:00,
2013-08-01 13:10:00,76.8,70.0,30.01,NW,311,3.0,-999.0,80,-99.99,,,0.00,weatherlink.com 1.10,2013-08-01 17:10:00,
2013-08-01 13:25:00,77.6,70.0,30.01,WNW,296,3.0,-999.0,78,-99.99,,,0.00,weatherlink.com 1.10,2013-08-01 17:25:00,
2013-08-01 13:40:00,79.0,70.0,30.00,WSW,244,8.0,-999.0,73,-99.99,,,0.00,weatherlink.com 1.10,2013-08-01 17:40:00,
2013-08-01 14:10:00,80.1,70.0,30.00,WNW,288,9.0,-999.0,71,-99.99,,,0.00,weatherlink.com 1.10,2013-08-01 18:10:00,
2013-08-01 14:25:00,80.8,70.0,29.99,WNW,282,7.0,-999.0,70,-99.99,,,0.00,weatherlink.com 1.10,2013-08-01 18:25:00,
2013-08-01 14:40:00,80.3,70.0,29.99,NW,305,7.0,-999.0,70,-99.99,,,0.00,weatherlink.com 1.10,2013-08-01 18:40:00,
2013-08-01 15:40:00,81.9,70.0,29.98,WNW,288,3.0,-999.0,67,-99.99,,,0.00,weatherlink.com 1.10,2013-08-01 19:40:00,
2013-08-01 16:25:00,81.7,69.0,29.97,NNW,335,5.0,-999.0,65,-99.99,,,0.00,weatherlink.com 1.10,2013-08-01 20:25:00,
2013-08-01 17:10:00,82.1,68.0,29.97,NW,325,0.0,-999.0,62,-99.99,,,0.00,weatherlink.com 1.10,2013-08-01 21:10:00,
2013-08-01 18:10:00,80.5,68.0,29.97,NW,316,5.0,-999.0,65,-99.99,,,0.00,weatherlink.com 1.10,2013-08-01 22:10:00,
2013-08-01 18:25:00,80.6,66.0,29.97,WNW,300,2.0,-999.0,62,-99.99,,,0.00,weatherlink.com 1.10,2013-08-01 22:25:00,
2013-08-01 18:40:00,80.9,68.0,29.97,NW,317,4.0,-999.0,64,-99.99,,,0.00,weatherlink.com 1.10,2013-08-01 22:40:00,
2013-08-01 18:56:00,81.1,67.0,29.97,NNW,331,2.0,-999.0,62,-99.99,,,0.00,weatherlink.com 1.10,2013-08-01 22:56:00,
2013-08-01 19:25:00,81.0,68.0,29.98,NNW,329,0.0,-999.0,64,-99.99,,,0.00,weatherlink.com 1.10,2013-08-01 23:25:00,
2013-08-01 19:57:00,80.1,66.0,29.98,NW,307,0.0,-999.0,63,-99.99,,,0.00,weatherlink.com 1.10,2013-08-01 23:57:00,
2013-08-01 20:10:00,79.4,69.0,29.98,NW,307,0.0,-999.0,70,-99.99,,,0.00,weatherlink.com 1.10,2013-08-02 00:10:00,
2013-08-01 20:25:00,76.4,68.0,29.98,NW,307,0.0,-999.0,76,-99.99,,,0.00,weatherlink.com 1.10,2013-08-02 00:25:00,
2013-08-01 20:40:00,74.4,68.0,29.98,NW,307,0.0,-999.0,79,-99.99,,,0.00,weatherlink.com 1.10,2013-08-02 00:40:00,
2013-08-01 20:57:00,74.0,68.0,29.98,NW,307,0.0,-999.0,80,-99.99,,,0.00,weatherlink.com 1.10,2013-08-02 00:57:00,
2013-08-01 21:10:00,70.7,66.0,29.99,NW,307,0.0,-999.0,84,-99.99,,,0.00,weatherlink.com 1.10,2013-08-02 01:10:00,
2013-08-01 21:25:00,69.5,65.0,29.99,NW,307,0.0,-999.0,86,-99.99,,,0.00,weatherlink.com 1.10,2013-08-02 01:25:00,
2013-08-01 21:40:00,68.5,64.0,29.99,NW,307,0.0,-999.0,86,-99.99,,,0.00,weatherlink.com 1.10,2013-08-02 01:40:00,
2013-08-01 21:57:00,68.4,64.0,29.99,NW,307,0.0,-999.0,86,-99.99,,,0.00,weatherlink.com 1.10,2013-08-02 01:57:00,
2013-08-01 22:10:00,66.8,64.0,29.99,NW,307,0.0,-999.0,89,-99.99,,,0.00,weatherlink.com 1.10,2013-08-02 02:10:00,
2013-08-01 22:25:00,66.1,63.0,30.00,NW,307,0.0,-999.0,90,-99.99,,,0.00,weatherlink.com 1.10,2013-08-02 02:25:00,
2013-08-01 22:40:00,65.6,63.0,30.00,NW,307,0.0,-999.0,91,-99.99,,,0.00,weatherlink.com 1.10,2013-08-02 02:40:00,
2013-08-01 22:57:00,65.4,63.0,30.00,NW,307,0.0,-999.0,91,-99.99,,,0.00,weatherlink.com 1.10,2013-08-02 02:57:00,
2013-08-01 23:10:00,64.8,63.0,30.01,NW,307,0.0,-999.0,92,-99.99,,,0.00,weatherlink.com 1.10,2013-08-02 03:10:00,